Regional Weather Roundup
Issued by NWS Sioux Falls, SD

Home | Current Version | Previous Version | Graphics & Text | Print | Product List | Glossary On
Versions: 1 2 3 4 5 6 7 8 9 10 11 12 13 14 15 16 17 18 19 20 21 22 23 24 25 26 27 28 29 30 31 32 33 34 35 36 37 38 39 40 41 42 43 44 45 46 47 48 49 50
000
ASUS43 KFSD 281710
RWRFSD

WEATHER ROUNDUP FOR SE SOUTH DAKOTA/SW MINNESOTA/NW IOWA
NATIONAL WEATHER SERVICE SIOUX FALLS SD
1100 AM CST SAT FEB 28 2015

NOTE: "FAIR" INDICATES FEW OR NO CLOUDS BELOW 12,000 FEET WITH NO
SIGNIFICANT WEATHER AND OR OBSTRUCTIONS TO VISIBILITY.


SDZ038>040-050-052>070-281800-
SOUTHEAST SOUTH DAKOTA

CITY           SKY/WX    TMP DP  RH WIND       PRES   REMARKS
CHAMBERLAIN    SUNNY     26   9  49 SW17G23   30.21S WCI  12
HURON          SUNNY     21  10  62 S20       30.26F WCI   6
MADISON        FAIR      16  10  79 S16G23    30.29S WCI   0
MITCHELL       SUNNY     24   8  50 SW17G24   30.30F WCI  11
SIOUX FALLS    MOSUNNY   17   8  67 S22       30.34F WCI   0
WINNER         FAIR      26   7  44 SW18      30.18F WCI  13
YANKTON        SUNNY     21   7  53 S20       30.36F WCI   6
$$

MNZ071-072-080-081-089-090-097-098-281800-
SOUTHWEST MINNESOTA

CITY           SKY/WX    TMP DP  RH WIND       PRES   REMARKS
FAIRMONT       SUNNY     10   3  72 S15       30.44F WCI  -6
JACKSON        SUNNY     14   5  67 S13G22    30.41F WCI   0
LUVERNE        SUNNY     18   9  68 S16       30.38F WCI   3
MARSHALL       SUNNY     18   7  62 S20       30.38F WCI   1
MONTEVIDEO     SUNNY     19   9  63 SW13G22   30.38S WCI   7
PIPESTONE      SUNNY     14   9  79 S21       30.32S WCI  -4
REDWOOD FALLS  SUNNY     17   7  64 S17       30.43S WCI   1
WINDOM         SUNNY     16   5  62 S17G25    30.40S WCI   0
WORTHINGTON    SUNNY     19   3  49 S22       30.40S WCI   3
$$

IAZ001>003-012>014-020>022-031-032-NEZ013-014-SDZ071-281800-
NORTHWEST IOWA

CITY           SKY/WX    TMP DP  RH WIND       PRES   REMARKS
CHEROKEE       SUNNY     15   6  68 S12       30.45F WCI   2
DENISON        SUNNY     18   7  62 S12       30.44F WCI   5
ESTHERVILLE    SUNNY      8   3  80 S17       30.45F WCI -10
LE MARS        SUNNY     18  10  73 S15       30.43F WCI   3
ORANGE CITY    SUNNY     18   9  68 S14       30.40F WCI   4
SHELDON        SUNNY     16   9  73 S15       30.40S WCI   1
SIOUX CITY     MOSUNNY   21  10  62 S14       30.44F WCI   8
SPENCER        SUNNY     14   5  67 S16       30.44F WCI  -2
STORM LAKE     SUNNY     12   5  73 S16       30.44F WCI  -4
$$

ABBREVIATIONS USED IN REMARKS
   TC - TEMPERATURE IN CELSIUS
  WCI - WIND CHILL INDEX
   HX - HEAT INDEX
  VSB - VISIBILITY



USA.gov is the U.S. government's official web portal to all federal, state and local government web resources and services.